Regional Weather Roundup
Issued by NWS

Home | Current Version | Previous Version | Text Only | Print | Product List | Glossary On
Versions: 1 2 3 4 5 6 7 8 9 10 11 12 13 14 15 16 17 18 19 20 21 22 23 24 25 26 27
000
ASUS42 KTBW 050515
RWRFL
FLORIDA REGIONAL WEATHER ROUNDUP
NATIONAL WEATHER SERVICE TAMPA BAY RUSKIN FL
100 AM EDT THU MAY 05 2016

NOTE: "FAIR" INDICATES FEW OR NO CLOUDS BELOW 12,000 FEET WITH NO
SIGNIFICANT WEATHER AND/OR OBSTRUCTIONS TO VISIBILITY.

FLZ001>010-012>015-112-114-115-050600-
PANHANDLE FLORIDA

CITY           SKY/WX    TMP DP  RH WIND       PRES   REMARKS
PENSACOLA      CLEAR     66  50  56 W7        29.83F
MILTON NAS     CLEAR     60  50  69 W8        29.83
CRESTVIEW      CLEAR     56  49  77 W5        29.83F
DUKE FIELD     CLEAR     63  47  55 W6        29.81F
VALPARAISO     CLEAR     62  50  64 NW7       29.82S
TRI COUNTY     FAIR      59  52  77 CALM      29.81F
PANAMA CITY    FAIR      59  51  75 CALM      29.81S
TYNDALL AFB    CLEAR     62  51  67 NW8       29.81F
APALACHICOLA   PTCLDY    62  50  64 NW3       29.81S

STATION/POSITION SKY/WX   TEMP    WIND        PRES    WAVE   SWELL
                          AIR SEA DIR/SP/G            HT/PER HT/PER
                          (F)     (DEG/KT/KT) (MB)    (FT/S) (FT/S)
30.1N   87.6W              74 75  290/ 16/ 17 1010.0F   2/ 4
29.2N   88.2W              75 75  320/ 17/ 19 1011.9R
28.8N   86.0W              74 78  340/ 19/ 23 1010.4R   6/ 6
PANAMA CITY BEAC           69 76  310/  6/  8 1010.1R
TOWER C                    71     330/ 20/ 22 1009.6R
28.5N   84.5W              73 74  340/ 21/ 25 1008.5R   6/ 7

$$
FLZ011-016>038-118-127-128-134-139-239-050600-
NORTH FLORIDA

CITY           SKY/WX    TMP DP  RH WIND       PRES   REMARKS
MARIANNA       CLEAR     60  51  72 W6        29.79S
TALLAHASSEE    CLEAR     58  49  72 CALM      29.79S
PERRY          CLEAR     60  51  73 W5        29.78S
LIVE OAK       FAIR      64  52  63 W7        29.77S
CROSS CITY       N/A     62  51  67 NW7       29.76R
LAKE CITY      FAIR      63  50  63 NW10      29.74S
GAINESVILLE    CLEAR     63  50  62 NW8       29.72S
WILLISTON      FAIR      64  54  68 W6        29.74S
PALATKA        FAIR      59  59 100 NW7       29.70S
MAYPORT NAS    CLEAR     66  51  58 NW7       29.69R
JACKSONVILLE   CLEAR     62  50  64 NW6       29.69S
JAX NAS        CLEAR     69  49  48 NW9       29.70S
JAX CECIL      CLEAR     64  50  59 NW8       29.70S
FERNANDINA BEA FAIR      68  50  52 NW5       29.67S
ST AUGUSTINE   CLEAR     63  57  81 NW6       29.69S
PALM COAST     FAIR      62  62 100 W7        29.68R

STATION/POSITION SKY/WX   TEMP    WIND        PRES    WAVE   SWELL
                          AIR SEA DIR/SP/G            HT/PER HT/PER
                          (F)     (DEG/KT/KT) (MB)    (FT/S) (FT/S)
SHELL POINT                65     320/  5/  9 1007.6
KEATON BEACH               67     330/  8/ 11 1007.9R
CEDAR KEY                  70     350/ 10/ 14 1007.3R
FERNANDINA                 68 75  300/  6/ 11 1005.2S
30.7N   81.3W                 72                N/A     3/ 7
MAYPORT                    69 73  340/  8/ 12 1005.2R
ST AUGUSTINE               64 71  320/  7/  9 1005.8R

$$
FLZ040-043>046-052-053-057-058-063-144-050600-
INTERIOR CENTRAL FLORIDA

CITY           SKY/WX    TMP DP  RH WIND       PRES   REMARKS
OCALA          CLEAR     64  54  68 NW7       29.73S
THE VILLAGES     N/A     64  61  88 W7        29.62F
LEESBURG       CLEAR     66  60  81 NW8       29.72S
SANFORD        PTCLDY    66  65  96 W9        29.68F
ORLANDO EXEC   CLEAR     68  63  84 NW10      29.69S
ORLANDO INTL   CLEAR     67  62  84 W12       29.70S
WINTER HAVEN   CLEAR     66  64  93 W10       29.73S
LAKELAND       CLEAR     64  63  94 W7        29.74S
BARTOW         FAIR      64  63  94 W8        29.74S
OKEECHOBEE     CLEAR     64  63  94 W10       29.72S

$$
FLZ041-047-054-059-064-141-147-050600-
EAST CENTRAL FLORIDA

CITY           SKY/WX    TMP DP  RH WIND       PRES   REMARKS
DAYTONA BEACH  CLEAR     63  62  97 W7        29.68R
DELAND           N/A     64  64 100 W7        29.70S
JFK SPACE CTR  PTCLDY    67  65  92 NW10      29.66R
CAPE CANAVERAL CLEAR     68  67  94 NW15      29.65R
PATRICK AFB    CLEAR     68  66  93 W17       29.66R
MELBOURNE      CLEAR     67  65  93 W14       29.67R
VERO BEACH     CLEAR     68  65  90 W15       29.68S
FT PIERCE      CLEAR     67  66  97 W12       29.68S
STUART         CLEAR     72  68  88 W9G18     29.71R

STATION/POSITION SKY/WX   TEMP    WIND        PRES    WAVE   SWELL
                          AIR SEA DIR/SP/G            HT/PER HT/PER
                          (F)     (DEG/KT/KT) (MB)    (FT/S) (FT/S)
28.5N   80.2W              72 77  290/ 21/ 23 1003.2F
28.9N   78.5W              73 79  200/ 14/ 17 1002.5
TRIDENT PIER               69 78  260/  9/ 13 1004.2F
28.4N   80.5W                 77                N/A     2/ 4
27.5N   80.2W                 76                N/A     3/ 4

$$
FLZ050-056-061-142-242-148-248-149-249-151-251-155-255-
160-260-050600-
WEST CENTRAL FLORIDA

CITY           SKY/WX    TMP DP  RH WIND       PRES   REMARKS
CRYSTAL RIVER  FAIR      66  52  59 NW7       29.75R
INVERNESS      FAIR      63  59  88 CALM      29.75R
BROOKSVILLE    PTCLDY    66  56  70 N8        29.75R
ZEPHYRHILLS    FAIR      57  55  91 W6        29.75R
CLEARWATER AIR FAIR      70  61  73 NW12G18   29.75S
ST PETE CLEARW CLEAR     71  61  70 W14       29.75S
TAMPA INTL     CLEAR     71  63  75 W8        29.75R
TAMPA EXEC     CLEAR     66  63  88 CALM      29.75S
PLANT CITY     PTCLDY    66  64  94 W7        29.76S
MACDILL AFB    CLEAR     70  67  88 NW9       29.75R
PETER O KNIGHT CLEAR     73  66  78 NW6       29.75S
ST PETERSBURG  CLEAR     70  62  76 NW6       29.74R
SARASOTA       PTCLDY    71  61  70 NW15      29.76R
VENICE         NOT AVBL

STATION/POSITION SKY/WX   TEMP    WIND        PRES    WAVE   SWELL
                          AIR SEA DIR/SP/G            HT/PER HT/PER
                          (F)     (DEG/KT/KT) (MB)    (FT/S) (FT/S)
27.3N   84.2W                 79                N/A     6/ 6
CLEARWATER BEACH           74 79  290/ 20/ 24 1007.4R
MIDDLE TAMPA BAY           73     320/ 14/ 17 1008.0R
VENICE                     74 81  300/ 24/ 27 1007.5R

$$
FLZ066-069-070-075>078-162-262-165-265-050600-
SOUTHWEST FLORIDA AND KEYS

CITY           SKY/WX    TMP DP  RH WIND       PRES   REMARKS
PUNTA GORDA    CLEAR     70  62  76 NW13      29.77R
FT MYERS       PTCLDY    71  63  75 NW8       29.75S
SOUTHWEST INTL PTCLDY    70  64  81 NW3       29.76R
NAPLES         PTCLDY    75  63  66 NW14G25   29.76S
MARCO ISLAND   PTCLDY    73  63  68 NW16      29.75F
MARATHON       CLOUDY    79  71  76 SW13G23   29.74F
KEY WEST NAS   CLOUDY    76  72  87 NW20      29.77S
KEY WEST INTL  CLOUDY    73  73 100 NW17      29.78S

STATION/POSITION SKY/WX   TEMP    WIND        PRES    WAVE   SWELL
                          AIR SEA DIR/SP/G            HT/PER HT/PER
                          (F)     (DEG/KT/KT) (MB)    (FT/S) (FT/S)
NAPLES                        81              1007.6R
26.0N   85.6W              73 80  330/ 17/ 23 1011.5R   6/ 7   2/10
DRY TORTUGAS               78     340/ 18/ 20 1009.1F
SAND KEY                   76     290/ 21/ 29 1009.1R
LONG KEY                   80 82  240/ 23/ 27 1007.8R

$$
FLZ067-068-071>074-168-172>174-050600-
SOUTHEAST FLORIDA

CITY           SKY/WX    TMP DP  RH WIND       PRES   REMARKS
W PALM BEACH   PTCLDY    71  67  87 W14       29.72R
FT LAUDER-EXEC MOCLDY    71  69  93 W16G23    29.71S
FT LAUDERDALE  MOCLDY    72  70  93 W17       29.72R
POMPANO BEACH  MOCLDY    74  71  91 W17G23    29.71S
PEMBROKE PINES CLOUDY    73  71  93 W16G23    29.74S
OPA LOCKA      CLOUDY   N/A N/A N/A W15       29.73S
MIAMI          CLOUDY    73  71  93 W10       29.73F
WEST KENDALL   CLOUDY    73  72  96 W14       29.73F
HOMESTEAD      LGT RAIN  72  70  93 W9        29.72F

STATION/POSITION SKY/WX   TEMP    WIND        PRES    WAVE   SWELL
                          AIR SEA DIR/SP/G            HT/PER HT/PER
                          (F)     (DEG/KT/KT) (MB)    (FT/S) (FT/S)
PORT EVERGLADES            74     250/  8/ 13 1006.1F
VIRGINIA KEY               76 81  250/ 26/ 31 1006.4F
LAKE WORTH                 74 78  220/ 12/ 16 1005.7S
SETTLEMENT POINT           78     250/ 35/ 39 1005.2F

$$





USA.gov is the U.S. government's official web portal to all federal, state and local government web resources and services.